Flag for U.S.A. Weather past 2 weeks in Pullman, Washington, U.S.A.

Now
87 °F

Sunny.


Feels Like: 84 °F
Forecast: 57 / 90 °F
Wind: 5 mph from North

Location: Pullman / Moscow Regional Airport

Current Time: Jul 7, 2015 at 1:19:03 PM

Latest Report: Jul 7, 2015 at 12:53 PM


Visibility: 10 mi

Pressure: 29.92 "Hg (27.61 "Hg at 715m altitude)

Humidity: 26%

Dew point: 48 °F

Location of PullmanLocation

Historic Weather in Pullman — Graph

°F

Pullman temperature yesterday

Maximum temperature yesterday: 91 °F (at 2:53 PM)
Minimum temperature yesterday: 53 °F (at 4:53 AM)
Average temperature yesterday: 74 °F

Past Weeks' High & Low Weather Summary

 TemperatureHumidityPressure
High104 °F (Jun 28, 3:53 PM)83% (Jun 30, 12:53 AM)30.17 "Hg (Jun 30, 12:53 AM)
Low47 °F (Jun 25, 4:53 AM)14% (Jun 28, 3:53 PM)29.68 "Hg (Jul 4, 6:53 PM)
Average75 °F45%29.95 "Hg
* Reported Jun 22 11:53 AM — Jul 7 11:53 AM, Pullman, Weather by CustomWeather, © 2015

Note: Actual official high and low records may vary slightly from our data, if they occured in-between our weather recording intervals... More about our weather records

Advertising

Pullman weather history for previous 24 hours

 ConditionsComfort  
Time TempWeatherWind HumidityBarometerVisibility
11:53 AM
Tue, Jul 7
84 °FScattered clouds.7 mph30%29.94 "Hg10 mi
10:53 AM83 °FSunny.9 mph32%29.95 "Hg10 mi
9:53 AM79 °FPartly sunny.9 mph38%29.95 "Hg10 mi
8:53 AM78 °FPartly sunny.10 mph39%29.94 "Hg10 mi
7:53 AM74 °FPassing clouds.No wind43%29.93 "Hg10 mi
6:53 AM68 °FPassing clouds.No wind53%29.92 "Hg10 mi
5:53 AM59 °FPassing clouds.No wind64%29.93 "Hg10 mi
4:53 AM56 °FPassing clouds.No wind70%29.92 "Hg10 mi
3:53 AM56 °FClear.No wind70%29.91 "Hg10 mi
2:53 AM57 °FClear.No wind67%29.91 "Hg10 mi
1:53 AM58 °FClear.No wind67%29.91 "Hg10 mi
12:53 AM59 °FClear.No wind64%29.91 "Hg10 mi
11:53 PM
Mon, Jul 6
63 °FClear.No wind56%29.92 "Hg10 mi
10:53 PM64 °FClear.No wind54%29.91 "Hg10 mi
9:53 PM68 °FClear.No wind49%29.91 "Hg10 mi
8:53 PM74 °FSunny.No wind40%29.89 "Hg10 mi
7:53 PM85 °FSunny.5 mph24%29.88 "Hg10 mi
6:53 PM89 °FSunny.5 mph20%29.88 "Hg10 mi
5:53 PM91 °FSunny.5 mph17%29.90 "Hg10 mi
4:53 PM91 °FSunny.5 mph16%29.93 "Hg10 mi
3:53 PM91 °FPartly sunny.6 mph17%29.95 "Hg10 mi
2:53 PM91 °FSunny.6 mph17%29.97 "Hg10 mi
1:53 PM90 °FSunny.5 mph18%29.99 "Hg10 mi
Weather by CustomWeather, © 2015

See weather overviewHow to use our weather pages